"Pseudo-MPEC" for P218fI1

Created 2020 Oct 19 5:07:49 UT using Find_Orb

Click here for an explanation of pseudo-MPECs

 
 Astrometry: 
     P218fI1  C2020 10 15BiS.o^x=o;*6ga0IAstrometry\kqqrg-\j%[f[J+42G)pF?;^U(F52
     P218fI1  C2020 10 15y@R5eI,(vM5Xrn9^)=C=Pk!kU@,nOhmo@)5Di=@q,RiTl']/KT9/F52
     P218fI1  C2020 10 15:aeZGYc53VcHTSet$KLm%rNb\ypuoiVkI#$gm^IH#/gQ38Wq*TYfF52
     P218fI1  C2020 10 17.O;#/+4T.kXO^qOasQd(ro;0'u'1):Q7DFoS+].:N@CgksNd$mFwF52
     P218fI1  C2020 10 17aaC6iTt]_1',Z57=w+FqOgc;'bNW%i?HZbWTE?'p:qmyq(^'*ce7F52
     P218fI1  C2020 10 17BAZ;j:#!HI=h*tB49GgeepImT#V?@G;redacted;[1+v5,D8$fBxF52
     P218fI1  C2020 10 17.vfCSg.#jUXHeQBfG]HYixHOv`-c\_K2KMUYn=\_MnalF)YGf[/3F52
     P218fI1 KC2020 10 18.05258602 03 00.95 +32 07 26.2    ~AI2M 20.5 GVNEOCPI93
     P218fI1 KC2020 10 18.05759202 03 02.21 +32 07 00.4    ~AI2M 20.4 GVNEOCPI93
     P218fI1 KC2020 10 18.06291302 03 03.58 +32 06 31.8    ~AI2M 20.5 GVNEOCPI93
     P218fI1 ^C2020 10 18.36609802 04 38.755+31 41 33.52   ~AIKq 20.57GVNEOCP568
     P218fI1 ^C2020 10 18.36704602 04 38.974+31 41 28.92   ~AIKq 20.86GVNEOCP568
     P218fI1 ^C2020 10 18.36800502 04 39.194+31 41 24.27   ~AIKq 20.42GVNEOCP568
     P218fI1 ^C2020 10 18.36895402 04 39.413+31 41 19.68   ~AIKq 20.69GVNEOCP568
     P218fI1 KC2020 10 18N_/hFL$,R61YEjN='gjON6uWIwC*#-q,l[Nla-x9C0sCTG`5h*etL01
     P218fI1 KC2020 10 18:MclickD7J(oWU#[]pBjH6h2/eA0%Vxcun]6u['Edv#+ZyiPu3S1L01
     P218fI1 KC2020 10 18!et@,^Ec6.here8^lNYM0for%k`\/lpb5G^HI$?xxL\DiMR'1x0kL01
     P218fI1 KC2020 10 18@Jq`'LVC;#[W+Bw]t#sFFKMXI7IO1M!l3\i%ZGax$FtU)n2gXI8`L01
     P218fI1 KC2020 10 18[aQ^kc1lUDNs3S-Zn_9:YHC(explanation[om#--^H_B9HS+#Q3L01

Station data:
(568) Mauna Kea  (N19.826116 W155.472200)  US/Hawaii.
(F52) Pan-STARRS 2, Haleakala  (N20.707384 W156.255910)  US/Hawaii. 1.8-m
   Ritchey-Chrétien + CCD.
(I93) St Pardon de Conques  (N44.558710 W0.203000)  France.  Observer F.
   Losse. 0.40-m f/3.7 reflector + CCD.
(L01) Višnjan Observatory, Tičan  (N45.290900 E13.749300)  Croatia.
   Observers K. Korlević, E. Pettarin. Measurer E. Pettarin. 1.0-m f/2.9
   reflector + CCD.

Orbital elements:  P218fI1
   Perihelion 2020 Sep 8.694397 +/- 0.00648 TT = 16:39:55 (JD 2459101.194397)
Epoch 2020 Oct 18.0 TT = JDT 2459140.5   Earth MOID: 0.0304   Ma: 0.0010
M  19.52144639 +/- 0.06             (J2000 ecliptic)          AutoNEOCP
n   0.49665810 +/- 0.00154          Peri.  108.21410 +/- 0.014
a   1.57917779 +/- 0.00326          Node   232.48790 +/- 0.017
e   0.3849929 +/- 0.00132           Incl.    2.51051 +/- 0.009
P   1.98/724.83d           H 25.4   G  0.15   U  8.4  
q 0.97120547 +/- 7.84e-5    Q 2.18715011 +/- 0.00659
From 19 observations 2020 Oct. 15-18; mean residual 0".19
Residuals in arcseconds: 
201015 F52  .25-  .22+    201018 I93  .06-  .40-    201018 L01  .10-  .12-    
201015 F52  .15+  .36-    201018 I93  .18-  .21+    201018 L01  .26+  .00     
201015 F52  .02-  .00     201018 I93  .07+  .28-    201018 L01  .02-  .01+    
201017 F52  .06+  .37+    201018 568  .07+  .10-    201018 L01  .40-  .14+    
201017 F52  .20+  .14+    201018 568  .08+  .10-    201018 L01  .13-  .24+    
201017 F52  .15+  .04+    201018 568  .06+  .10-    
201017 F52  .01-  .32+    201018 568  .07+  .08-    

Ephemerides (geocentric):
Date (UTC) HH   RA              Dec         delta   r     elong  mag " sig PA
---- -- -- --  -------------   -----------  ------ ------ -----  --- ---- ---
2020 10 19 05  02 08 19.488   +30 33 22.23  .07075 1.0620 158.2 20.8 .430 130
2020 10 19 06  02 08 29.920   +30 30 09.22  .07092 1.0622 158.2 20.8 .447 130
2020 10 19 07  02 08 40.289   +30 26 56.97  .07108 1.0624 158.3 20.8 .464 131
2020 10 19 08  02 08 50.596   +30 23 45.48  .07125 1.0625 158.4 20.8 .482 131
2020 10 19 09  02 09 00.841   +30 20 34.75  .07142 1.0627 158.4 20.8 .499 131
2020 10 19 10  02 09 11.025   +30 17 24.77  .07159 1.0629 158.5 20.8 .517 131
2020 10 19 11  02 09 21.147   +30 14 15.54  .07175 1.0630 158.6 20.8 .535 131
2020 10 19 12  02 09 31.210   +30 11 07.05  .07192 1.0632 158.6 20.8 .553 131
2020 10 19 13  02 09 41.212   +30 07 59.30  .07209 1.0634 158.7 20.8 .571 132
2020 10 19 14  02 09 51.155   +30 04 52.29  .07226 1.0636 158.7 20.8 .589 132
2020 10 19 15  02 10 01.038   +30 01 46.02  .07243 1.0637 158.8 20.8 .607 132
2020 10 19 16  02 10 10.864   +29 58 40.47  .07259 1.0639 158.9 20.9 .626 132
2020 10 19 17  02 10 20.631   +29 55 35.64  .07276 1.0641 158.9 20.9 .644 132
2020 10 19 18  02 10 30.340   +29 52 31.54  .07293 1.0643 159.0 20.9 .663 132
2020 10 19 19  02 10 39.993   +29 49 28.16  .07310 1.0644 159.0 20.9 .681 132
2020 10 19 20  02 10 49.588   +29 46 25.49  .07327 1.0646 159.1 20.9 .700 133
2020 10 19 21  02 10 59.128   +29 43 23.53  .07344 1.0648 159.2 20.9 .719 133
2020 10 19 22  02 11 08.611   +29 40 22.28  .07361 1.0650 159.2 20.9 .738 133
2020 10 19 23  02 11 18.039   +29 37 21.73  .07378 1.0651 159.3 20.9 .757 133
2020 10 20 00  02 11 27.412   +29 34 21.88  .07395 1.0653 159.3 20.9 .776 133
2020 10 20 01  02 11 36.731   +29 31 22.73  .07412 1.0655 159.4 20.9 .795 133
2020 10 20 02  02 11 45.996   +29 28 24.27  .07429 1.0656 159.5 20.9 .814 133
2020 10 20 03  02 11 55.206   +29 25 26.50  .07446 1.0658 159.5 20.9 .834 133
2020 10 20 04  02 12 04.364   +29 22 29.41  .07463 1.0660 159.6 20.9 .853 133
2020 10 20 05  02 12 13.469   +29 19 33.01  .07480 1.0662 159.6 20.9 .873 133
2020 10 20 06  02 12 22.521   +29 16 37.29  .07497 1.0663 159.7 20.9 .892 134
2020 10 20 07  02 12 31.521   +29 13 42.24  .07514 1.0665 159.8 20.9 .912 134
2020 10 20 08  02 12 40.470   +29 10 47.86  .07531 1.0667 159.8 20.9 .931 134
2020 10 20 09  02 12 49.367   +29 07 54.16  .07548 1.0669 159.9 20.9 .951 134
2020 10 20 10  02 12 58.214   +29 05 01.11  .07565 1.0670 159.9 20.9 .971 134
2020 10 20 11  02 13 07.010   +29 02 08.73  .07582 1.0672 160.0 20.9 0.99 134
2020 10 20 12  02 13 15.756   +28 59 17.01  .07599 1.0674 160.1 20.9 1.01 134
2020 10 20 13  02 13 24.452   +28 56 25.95  .07617 1.0676 160.1 20.9 1.03 134
2020 10 20 14  02 13 33.099   +28 53 35.53  .07634 1.0677 160.2 20.9 1.05 134
2020 10 20 15  02 13 41.697   +28 50 45.76  .07651 1.0679 160.2 20.9 1.07 134
2020 10 20 16  02 13 50.246   +28 47 56.64  .07668 1.0681 160.3 20.9 1.09 134
2020 10 20 17  02 13 58.747   +28 45 08.16  .07685 1.0683 160.3 20.9 1.11 134
2020 10 20 18  02 14 07.201   +28 42 20.32  .07702 1.0684 160.4 20.9 1.13 134
2020 10 20 19  02 14 15.606   +28 39 33.12  .07720 1.0686 160.5 20.9 1.15 134
2020 10 20 20  02 14 23.965   +28 36 46.55  .07737 1.0688 160.5 20.9 1.17 135
2020 10 20 21  02 14 32.277   +28 34 00.60  .07754 1.0690 160.6 21.0 1.19 135
2020 10 20 22  02 14 40.542   +28 31 15.29  .07771 1.0692 160.6 21.0 1.21 135
2020 10 20 23  02 14 48.761   +28 28 30.59  .07789 1.0693 160.7 21.0 1.23 135
2020 10 21 00  02 14 56.935   +28 25 46.52  .07806 1.0695 160.8 21.0 1.25 135
2020 10 21 01  02 15 05.063   +28 23 03.06  .07823 1.0697 160.8 21.0 1.28 135
2020 10 21 02  02 15 13.146   +28 20 20.21  .07841 1.0699 160.9 21.0 1.30 135
2020 10 21 03  02 15 21.184   +28 17 37.98  .07858 1.0700 160.9 21.0 1.32 135
2020 10 21 04  02 15 29.178   +28 14 56.35  .07875 1.0702 161.0 21.0 1.34 135